Regional Weather Roundup
Issued by NWS

Home | Current Version | Previous Version | Text Only | Print | Product List | Glossary Off
Versions: 1 2 3 4 5 6 7 8 9 10 11 12 13 14 15 16 17 18 19 20 21 22 23 24 25 26 27 28 29 30 31 32 33 34 35 36 37 38 39 40 41 42 43 44 45 46 47 48 49 50

000
ASUS45 KSLC 301210
RWRUT

UTAH REGIONAL WEATHER ROUNDUP
NATIONAL WEATHER SERVICE SALT LAKE CITY UT
600 AM MDT SUN AUG 30 2015

UTZ001>011-023>025-301300-

NORTHERN UTAH

CITY           SKY/WX    TMP DP  RH WIND       PRES   REMARKS
BRIGHAM CITY   MOCLDY    75  42  30 NW16G26   29.94R
HILL AFB       CLOUDY    77  47  35 W7        29.97S
LOGAN          PTCLDY    71  47  42 N12       29.97R
OGDEN          CLOUDY    77  48  35 S7        29.94R
PROVO AIRPORT  MOCLDY    73  46  38 S3        29.99S
SALT LAKE CITY MOCLDY    82  46  28 S10       29.91R
VERNAL         PTCLDY    60  40  47 CALM      30.07S
WENDOVER       CLOUDY    79  39  24 N6        29.95R
HEBER CITY     MOCLDY    64  48  55 CALM      30.06S
WEST JORDAN    CLEAR     79  46  31 SE17      29.96S

$$

UTZ012>022-026-027-301300-

SOUTHERN/CENTRAL UTAH

CITY           SKY/WX    TMP DP  RH WIND       PRES   REMARKS
BLANDING       CLEAR     63  39  41 NE6       30.27R
BRYCE CANYON   CLEAR     49  44  83 W6        30.29S
CEDAR CITY     CLEAR     66  46  48 S7        30.11S
DELTA          MOCLDY    73  43  34 S10       30.02S
HANKSVILLE     PTCLDY    64  45  48 CALM      30.05R
MILFORD        PTCLDY    63  46  54 S9        30.04S
MOAB/CYNLANDS  CLEAR     66  35  31 SE3       30.03S
PRICE          MOCLDY    67  43  41 NE3       30.12S
ST GEORGE      PTSUNNY   81  52  36 CALM      29.94R
KANAB          CLEAR     63  54  72 CALM      30.16R

$$

REGIONAL REPORTS     COLORADO/ARIZONA

CITY           SKY/WX    TMP DP  RH WIND       PRES   REMARKS
CRAIG, CO      PTCLDY    45  40  82 S3        30.19R
GRAND JUNCTION CLEAR     60  41  49 E5        30.08S
RIFLE          PTCLDY    53  43  68 CALM      30.17S
MONTROSE       PTCLDY    57  43  59 S8        30.21R
CORTEZ         CLEAR     54  47  77 CALM      30.22S
PAGE, AZ       CLEAR     78  48  34 SW7       30.05R
GRAND CANYON   CLEAR     49  43  80 CALM      30.26S
KINGMAN        CLEAR     76  54  46 SE9       29.98S
FLAGSTAFF      CLEAR     51  48  89 CALM      30.31R

$$

REGIONAL REPORTS    NEVADA/IDAHO/WYOMING

CITY           SKY/WX    TMP DP  RH WIND       PRES   REMARKS
LAS VEGAS, NV  PTCLDY    87  42  20 S7        29.82R
ELY            CLEAR     62  34  35 S9        30.11S
ELKO           PTCLDY    57  40  52 SW3       30.06R
POCATELLO, ID  CLEAR     62  48  60 S12       30.01R
BURLEY         PTCLDY    58  49  72 S6        29.97S
EVANSTON, WY   PTCLDY    65  40  39 SW14      30.13S
ROCK SPRINGS   MOCLDY    67  32  27 SW12      30.12S
KEMMERER       PTCLDY    59  36  41 W3        30.15S

$$


USA.gov is the U.S. government's official web portal to all federal, state and local government web resources and services.